SCP
0 0 0 0 0 0 0 0 0 0 0 0 0 0 0 0 0 0 0 0 0 0 0 1 0 0 0 0 0 1 1 2 2 2 2 1 1 1 1 1 1 0 0 0
0 0 0 0 0 0 0 0 0 0 0 0 0 0 0 0 0 0 0 0 0 0 1 1 1 0 0 0 1 1 1 2 2 2 2 1 1 1 1 1 1 0 0 0
0 0 0 0 0 0 0 0 0 0 0 0 0 0 0 0 0 0 0 0 0 0 1 1 1 0 0 0 1 1 1 2 2 2 2 2 1 1 1 1 1 0 0 0
0 0 0 0 0 0 0 0 0 0 0 0 0 0 0 0 0 0 0 0 0 0 1 1 1 0 0 0 0 1 1 2 2 2 2 2 2 1 1 1 1 0 0 0
0 0 0 0 0 0 0 0 0 0 0 0 0 0 0 0 0 0 0 0 0 0 0 1 1 0 0 0 0 1 1 2 2 2 2 2 2 1 1 1 1 1 0 0
0 0 0 0 0 0 0 0 0 0 0 0 0 0 0 0 0 0 0 0 0 0 0 0 1 0 0 0 0 1 1 2 2 2 2 2 2 1 1 1 1 1 1 0
0 0 0 0 0 0 0 0 0 0 0 0 0 0 0 0 0 0 0 0 0 0 0 0 1 0 0 0 1 1 1 2 2 2 2 2 2 1 1 1 1 1 1 1
0 0 0 0 0 0 0 0 0 0 0 0 0 0 0 0 0 0 0 0 0 0 0 0 1 1 0 0 1 1 2 2 2 2 2 2 2 2 1 1 1 1 1 1
0 0 0 0 0 0 0 0 0 0 0 0 0 0 0 0 0 0 0 0 0 0 0 0 1 1 0 0 1 1 2 2 2 2 2 3 2 2 2 1 1 1 1 1
0 0 0 0 0 0 0 0 0 0 0 0 0 0 0 0 0 0 0 0 0 0 0 0 0 1 1 1 1 1 1 1 1 2 3 3 3 3 2 2 2 1 1 1
0 0 0 0 0 0 0 0 0 0 0 0 0 0 0 0 0 0 0 0 0 0 0 0 0 0 1 1 1 1 1 1 1 2 2 3 3 3 3 2 2 1 1 1
0 0 0 0 0 0 0 0 0 0 0 0 0 0 0 0 0 0 0 0 0 0 0 0 0 0 1 1 1 1 1 1 1 1 2 2 3 3 3 2 2 1 1 1
0 0 0 0 0 0 0 0 0 0 0 0 0 0 0 0 0 0 0 0 0 0 0 0 0 0 1 1 1 1 1 1 1 1 1 2 2 2 2 2 2 2 1 1
0 0 0 0 0 0 0 0 0 0 0 0 0 0 0 0 0 0 0 0 0 0 0 0 0 1 1 1 1 1 1 1 1 1 1 1 1 1 1 1 1 1 1 1
0 0 0 0 0 0 0 0 0 0 0 0 0 0 0 0 0 0 0 0 0 0 0 0 0 0 1 1 0 1 1 1 1 1 2 1 1 1 1 1 1 1 1 1
0 0 0 0 0 0 0 0 0 0 0 0 0 0 0 0 0 0 0 0 0 0 0 0 0 0 0 0 0 0 0 1 1 1 1 1 1 1 1 1 1 1 1 1
0 0 0 0 0 0 0 0 0 0 0 0 0 0 0 0 0 0 0 0 0 0 0 0 0 0 0 0 0 0 0 0 1 1 1 1 1 1 1 1 1 1 1 1
0 0 0 0 0 0 0 0 0 0 0 0 0 0 0 0 0 0 0 0 0 0 0 0 0 0 0 0 0 0 0 0 0 1 1 1 1 1 1 1 1 1 1 1
0 0 0 0 0 0 0 0 0 0 0 0 0 0 0 0 0 0 0 0 0 0 0 0 0 0 0 0 0 0 0 0 0 1 1 1 1 1 1 1 1 1 1 1
0 0 0 0 0 0 0 0 0 0 0 0 0 0 0 0 0 0 0 0 0 0 0 0 0 0 0 0 0 0 0 0 0 0 1 1 1 1 1 1 1 1 1 1
0 0 0 0 0 0 0 0 0 0 0 0 0 0 0 0 0 0 0 0 0 0 0 0 0 0 0 0 0 0 0 0 0 0 0 0 1 1 1 1 1 1 1 1
0 0 0 0 0 0 0 0 0 0 0 0 0 0 0 0 0 0 0 0 0 0 0 0 0 0 0 0 1 1 1 0 0 0 0 0 0 1 1 1 1 1 1 1
0 0 0 0 0 0 0 0 0 0 0 0 0 0 0 0 0 0 0 0 0 0 0 0 0 0 0 0 1 1 1 1 0 0 0 0 0 0 1 1 1 1 1 1
0 0 0 0 0 0 0 0 0 0 0 0 0 0 0 0 0 0 0 0 0 0 0 0 0 0 0 0 0 1 1 0 0 0 0 0 0 0 0 0 0 0 0 0
0 0 0 0 0 0 0 0 0 0 0 0 0 0 0 0 0 0 0 0 0 0 0 0 0 0 0 0 0 0 0 0 0 0 0 0 0 0 0 0 0 0 0 0
0 0 0 0 0 0 0 0 0 0 0 0 0 0 0 0 0 0 0 0 0 0 0 0 0 0 0 0 0 0 0 0 0 0 0 0 0 0 0 0 0 0 0 0
Wind_Speed
4 6 6 5 6 5 4 5 5 4 3 6 8 8 6 6 8 9 9 10 10 10 9 9 9 8 8 8 9 8 8 7 6 5 4 4 4 3 3 2 2 2 2 2
6 7 6 4 5 6 7 7 6 3 2 6 7 9 8 7 9 9 10 10 10 10 10 10 10 10 10 10 9 9 8 8 7 5 4 3 3 3 2 2 2 3 2 2
8 2 4 6 7 8 8 8 6 5 3 6 8 9 8 7 8 9 9 9 9 9 11 11 11 10 10 10 10 8 9 9 8 7 5 4 3 3 4 4 3 3 3 3
6 4 5 8 8 8 7 6 7 7 7 4 6 6 5 5 7 8 8 8 9 9 10 10 10 10 11 10 10 10 9 9 8 8 7 7 5 5 5 4 3 4 4 4
5 5 6 8 7 8 5 2 6 7 8 8 7 8 4 5 6 6 6 6 7 8 9 10 10 10 10 10 9 9 10 9 9 9 8 7 6 5 4 4 5 4 4 4
6 3 5 5 4 6 5 5 5 6 7 9 6 8 5 3 3 3 3 3 5 6 8 9 9 9 9 9 9 9 10 9 9 9 9 9 8 6 6 6 5 5 4 4
7 7 5 5 6 6 9 8 5 6 7 5 3 7 4 1 2 3 4 3 3 4 6 7 8 9 9 9 10 10 10 10 10 10 10 9 8 8 7 6 6 5 4 4
7 6 6 5 7 6 9 10 7 5 5 4 5 7 2 0 1 2 3 2 2 3 4 5 7 8 8 9 10 10 11 10 10 9 9 9 8 6 5 6 5 5 4 4
5 4 3 3 5 6 7 8 7 8 7 7 6 5 3 3 2 1 1 1 1 2 3 4 5 6 7 8 9 10 10 10 10 10 9 8 8 7 7 7 6 4 4 4
5 6 4 3 5 4 6 5 5 7 7 8 7 7 4 3 2 1 0 1 1 2 3 3 4 4 5 6 7 8 9 9 9 9 8 7 8 8 7 7 7 6 5 5
7 7 5 6 7 7 7 8 8 7 7 7 6 3 0 2 1 2 1 0 1 2 2 3 3 3 3 5 6 7 7 8 8 8 8 8 8 7 7 7 7 6 6 6
5 6 7 7 3 4 7 8 10 9 8 8 8 4 2 1 1 2 2 1 0 1 2 2 3 3 3 3 5 6 6 7 6 7 8 8 7 7 7 7 7 7 7 6
3 6 7 7 7 7 7 7 9 9 9 9 10 5 3 0 1 1 1 0 1 1 2 2 2 2 2 2 3 4 5 6 6 6 7 8 8 8 7 7 7 7 7 7
5 8 9 9 5 4 8 9 10 11 10 11 12 10 5 4 3 3 1 1 0 1 1 1 1 1 2 2 2 2 4 5 5 6 7 7 8 7 7 7 7 7 7 7
5 8 9 9 8 8 10 11 12 14 14 14 12 12 9 6 5 4 3 2 1 1 1 1 1 1 1 1 1 1 2 3 5 6 7 7 7 7 7 7 7 6 6 6
5 7 7 9 8 9 11 12 13 14 14 14 14 12 6 5 5 5 4 3 2 2 2 2 2 2 2 1 1 1 1 2 4 5 6 5 6 6 6 6 6 6 6 6
5 6 7 8 6 9 12 10 10 11 10 11 12 8 5 6 5 5 4 4 4 3 3 3 3 3 3 2 2 2 2 2 3 4 5 5 6 6 6 6 6 6 7 7
7 7 6 6 7 12 4 1 6 8 9 8 7 6 6 6 5 5 5 5 5 4 4 3 3 3 2 2 2 1 1 1 3 3 4 4 5 6 5 6 6 6 6 6
8 8 6 6 8 10 6 3 4 7 8 6 7 6 6 5 6 5 3 4 5 4 4 3 3 3 3 2 2 2 1 1 2 3 3 4 4 5 6 6 6 6 6 6
6 7 7 7 9 9 3 0 2 6 8 2 4 5 5 5 6 3 3 4 4 3 3 3 2 3 3 2 2 2 2 2 2 3 3 3 4 5 6 6 6 5 5 6
5 6 9 9 10 8 2 1 2 7 3 2 3 4 5 6 5 5 4 4 4 3 3 3 3 3 2 2 2 3 3 2 2 2 3 3 4 4 4 4 4 5 4 5
6 5 7 7 9 6 1 2 4 4 4 3 4 4 5 5 5 5 4 4 3 2 2 2 2 2 2 2 3 3 2 2 1 1 2 3 3 3 3 3 3 4 4 5
7 5 4 6 5 3 3 4 5 5 5 5 5 5 5 5 5 5 4 3 2 2 2 2 2 2 1 2 2 3 2 1 1 2 2 2 3 3 3 3 3 3 4 3
5 4 7 8 8 7 6 6 6 6 6 6 6 6 5 6 5 5 4 3 2 1 1 1 1 2 1 1 2 2 2 2 3 2 2 2 2 2 2 2 3 3 3 3
6 5 8 10 8 7 6 5 5 5 5 5 5 5 5 5 5 4 3 3 2 1 1 1 2 2 2 2 2 1 2 3 3 2 1 1 1 1 2 2 2 3 2 2
6 7 8 8 6 7 7 6 6 6 6 5 5 5 5 5 4 4 3 2 2 2 2 2 2 2 2 2 2 1 2 2 2 2 1 1 1 1 2 2 1 1 0 1
Wind_Direction
187 209 214 213 227 257 245 234 235 234 216 232 241 249 244 221 221 227 223 217 214 213 202 197 195 194 192 190 191 186 186 182 178 181 182 180 178 178 172 179 182 170 177 163
194 221 226 222 219 228 232 236 240 230 208 245 253 258 253 232 228 231 232 226 219 213 202 196 194 194 195 192 193 190 192 188 186 189 190 191 187 185 177 186 195 189 185 175
219 222 188 199 205 218 229 241 249 254 235 230 258 250 232 216 224 230 234 235 229 219 212 199 196 196 197 197 195 195 195 191 189 187 187 178 177 186 184 190 196 201 199 190
232 215 201 212 218 228 235 238 247 244 244 240 243 264 229 212 217 221 224 224 225 217 214 204 198 197 199 200 195 198 197 194 189 188 193 195 201 205 205 201 193 196 198 200
210 203 213 224 231 228 243 234 234 243 249 254 233 256 236 209 228 224 219 220 220 214 212 204 201 200 201 199 196 198 197 195 192 195 196 207 212 214 208 203 199 203 193 200
234 216 239 243 231 223 197 189 195 219 240 245 235 249 253 214 240 243 228 228 222 215 210 206 200 198 199 196 195 197 199 197 195 199 202 207 209 210 209 210 206 205 196 199
217 211 209 223 209 190 208 222 222 217 219 236 200 243 253 307 296 283 283 272 234 208 202 199 195 193 195 194 194 196 198 198 198 203 206 208 209 210 211 213 212 211 204 202
231 215 197 210 231 220 212 231 246 257 253 241 199 239 223 117 303 287 276 270 227 199 193 196 197 193 194 194 195 197 196 199 200 205 208 209 206 209 213 215 213 215 213 211
238 230 178 216 231 239 216 225 256 274 271 265 235 227 218 216 210 219 254 217 197 184 182 183 184 188 193 194 196 198 197 198 200 204 207 209 207 206 209 212 211 209 207 210
258 250 212 200 197 214 253 222 218 238 254 253 246 240 235 203 218 268 255 196 182 166 164 166 172 180 184 190 193 196 199 201 202 204 205 203 207 207 209 207 207 203 202 205
245 248 223 201 218 225 204 209 225 239 254 267 264 244 95 257 252 285 297 184 167 149 151 151 154 168 175 181 183 187 196 201 202 203 204 203 204 203 205 207 208 205 204 204
229 252 245 232 224 261 246 236 233 243 241 249 269 269 99 260 288 294 298 288 107 114 122 126 132 141 160 177 183 186 194 201 201 202 204 205 204 201 205 209 209 206 206 208
217 242 244 220 201 204 225 232 239 252 255 248 253 254 118 161 311 322 324 53 133 120 108 112 128 141 156 176 187 194 198 202 201 201 203 201 202 204 207 210 211 209 209 210
256 247 252 258 272 242 232 228 230 239 249 251 251 267 267 278 296 308 308 297 204 167 151 139 143 148 158 173 180 202 208 203 202 200 203 205 205 206 207 208 209 210 209 209
250 255 257 267 272 262 256 250 238 239 250 259 264 267 275 281 281 280 279 279 256 229 222 221 230 230 184 166 166 185 214 207 200 201 206 209 207 204 208 209 208 207 208 212
249 256 255 253 252 258 258 254 249 247 250 254 261 264 274 274 270 264 262 260 260 265 258 247 233 234 236 222 208 217 225 216 207 205 207 205 208 204 206 209 209 207 208 211
239 250 253 253 252 259 250 245 242 241 243 250 258 269 275 269 267 263 266 260 266 271 263 253 243 233 241 246 241 249 250 223 213 214 210 203 202 203 207 208 208 208 208 207
243 243 253 263 254 249 258 260 245 243 244 247 255 268 270 273 279 273 265 271 276 275 267 257 253 250 251 258 262 262 257 226 217 217 216 209 206 201 203 206 208 209 208 206
237 234 238 244 257 263 250 228 233 243 246 248 256 272 280 274 263 251 259 277 279 278 272 260 252 249 252 250 250 240 231 225 223 223 225 218 210 202 201 206 211 211 210 210
214 231 240 240 254 258 256 86 276 259 252 248 266 273 276 266 261 272 319 295 286 286 281 267 248 239 244 253 241 230 232 232 235 235 232 227 219 209 208 212 213 211 213 216
204 217 231 243 254 264 310 8 230 239 272 7 301 282 267 266 286 307 306 301 292 282 269 256 245 239 240 237 227 234 241 249 256 249 236 224 220 218 214 211 210 210 212 217
233 229 234 240 245 248 107 208 246 296 327 307 300 296 285 290 297 292 293 293 286 278 266 249 242 240 233 223 222 231 246 265 268 248 241 227 219 214 206 202 203 205 204 210
237 251 262 249 263 321 284 275 295 300 297 300 302 298 290 284 285 284 285 284 279 278 267 249 236 234 224 224 231 235 244 244 230 223 231 234 219 204 203 206 201 204 204 211
238 258 257 259 256 269 278 281 285 289 287 292 293 289 280 279 278 278 279 280 283 293 286 268 239 239 247 255 258 258 240 224 216 213 211 226 224 203 198 205 206 206 205 210
256 245 254 259 267 270 263 277 288 292 293 292 290 283 275 273 272 276 279 278 277 291 296 274 261 261 265 268 267 268 242 220 216 209 195 214 222 197 204 208 214 222 216 217
235 244 252 263 268 267 274 280 277 280 286 293 292 294 288 276 272 270 272 277 269 275 287 279 271 274 275 267 265 261 239 228 218 206 197 201 211 210 200 199 186 110 191 105